Simultaneous Nadir Overpasses (SNOs) Predictions

Prediction of SNOs between AQUA and NOAA-19 Satellite Orbit:

Table of predicted SNOs for the next 14.0 days since TLE Epoch: 8/28/2020
Index Date (AQUA) Time (AQUA) Lat,Lon (AQUA) SZA (AQUA ) Date (NOAA-19) Time (NOAA-19) Lat,Lon (NOAA-19) SZA (NOAA-19 ) Distance(km) Time Diff (sec)
1 08/30/2020 19:34:05 -79.56, 39.26 107.90 08/30/2020 19:33:21 -79.55, 39.19 107.88 1.87 44
2 08/30/2020 20:23:33 79.60,-153.32 72.17 08/30/2020 20:24:24 79.58,-153.33 72.13 1.87 51
3 09/02/2020 01:07:49 79.54, 135.97 72.87 09/02/2020 01:06:40 79.56, 136.05 72.91 2.80 69
4 09/02/2020 01:57:16 -79.58, -56.65 107.07 09/02/2020 01:57:36 -79.57, -56.59 107.09 1.33 20
5 09/04/2020 07:30:59 79.57, 40.01 73.72 09/04/2020 07:30:55 79.56, 40.06 73.71 1.05 4
6 09/06/2020 13:04:42 -79.55, 136.72 105.51 09/06/2020 13:04:07 -79.54, 136.62 105.49 2.19 35
7 09/06/2020 13:54:10 79.59, -55.96 74.58 09/06/2020 13:55:11 79.56, -55.95 74.53 3.53 61
8 09/08/2020 18:38:26 79.55,-126.71 75.32 09/08/2020 18:37:27 79.54,-126.63 75.33 1.83 59
9 09/08/2020 19:27:53 -79.57, 40.77 104.64 09/08/2020 19:28:22 -79.56, 40.83 104.67 1.79 29
